Tracking 27086 objects as of 22-Mar-2023
HD Live streaming from Space Station
objects crossing your sky now

SL-14 R/B

Track SL-14 R/B now!
10-day predictions


NORAD ID: 16327
Int'l Code: 1985-113B
Perigee: 611.9 km
Apogee: 636.3 km
Inclination: 82.5 °
Period: 97.0 minutes
Semi major axis: 6995 km
RCS: 4.5252 m2 (large)
Launch date: December 12, 1985
Source: Commonwealth of Independent States (former USSR) (CIS)
Launch site: PLESETSK MISSILE AND SPACE COMPLEX (PKMTR)

Note: This is a ROCKET BODY
Your satellite tracking list
Your tracking list is empty




NASA's NSSDC Master Catalog

Two Line Element Set (TLE):
1 16327U 85113B   23080.82337828  .00000666  00000-0  77233-4 0  9995
2 16327  82.5308 285.4202 0017470 248.4752 121.9291 14.83916817992611
Source of the keplerian elements: AFSPC